User: anonymous   Login
Location: Unspecified
(0.0000°N, 0.0000°E)
Time: 00:39:32
(UTC+00:00)
Language:

OAO 3 Copernicus - Orbit

View from above orbital plane
View from above orbital plane
View from above satellite
View from above satellite

Ground track
Ground track

The orbit data is extracted from the following two-line orbital elements,

1  6153U 72065A   17206.47168917 +.00000011 +00000-0 +68700-5 0  9992
2  6153 035.0057 193.2312 0006621 017.1235 126.6444 14.57840103386470
Epoch (UTC): 25 July 2017 11:19:13
Eccentricity: 0.0006621
inclination: 35.0057°
perigee height: 695 km
apogee height: 705 km
right ascension of ascending node: 193.2312°
argument of perigee: 17.1235°
revolutions per day: 14.57840103
mean anomaly at epoch: 126.6444°
orbit number at epoch: 38647

The dashed part of the orbit path shows where the satellite is in the earth's shadow,  

DLR